Theta_e
315 313 315 316 318 320 322 321 318 317 321 325 324 319 321 321 324 325 321 311 310 310 312 311 312 314 315 316 317 319 322 322 322 324 320 321 320 320 318 319 320 321 325 328 332
315 313 314 316 316 319 321 321 320 317 316 320 322 320 316 313 314 321 325 317 313 311 311 311 312 314 315 317 315 318 321 322 323 322 319 320 320 319 317 318 319 321 323 332 329
315 314 314 316 316 318 319 319 319 320 318 318 317 316 316 313 314 316 325 323 316 313 311 311 314 315 314 317 317 317 321 320 320 319 320 320 319 318 318 317 318 321 322 332 331
315 314 314 315 315 316 318 318 317 316 317 316 313 314 314 314 318 320 313 316 313 312 311 311 314 315 316 317 316 318 318 317 317 317 319 319 319 319 318 318 319 319 319 327 331
316 314 314 315 315 315 316 317 317 311 312 312 311 311 312 310 312 312 320 312 310 310 309 312 314 315 316 317 317 317 316 316 317 316 318 319 319 318 318 318 317 318 321 325 330
315 314 314 315 315 315 316 316 316 310 309 309 309 310 309 311 313 311 310 310 311 310 309 313 313 315 316 316 316 317 316 315 315 316 315 317 316 316 318 318 317 315 320 324 328
316 315 314 314 315 315 316 316 312 308 308 308 309 309 310 311 310 310 310 310 311 310 310 313 314 313 315 316 315 316 315 314 315 315 315 315 315 314 316 317 316 316 316 319 323
316 315 314 313 315 315 315 314 309 308 308 308 308 309 311 309 310 309 309 311 310 312 313 313 313 313 314 314 314 315 315 315 315 314 314 315 318 315 316 315 314 314 314 314 318
315 315 314 313 315 315 315 313 308 308 307 307 307 311 309 309 309 309 311 312 312 312 312 312 312 313 313 313 313 313 314 316 313 314 314 314 316 312 314 314 314 314 315 315 314
316 316 314 313 314 314 313 310 308 308 308 308 311 312 310 309 308 308 312 312 311 311 312 312 314 314 313 312 313 314 313 314 314 312 314 313 313 313 313 313 314 314 315 314 314
315 315 314 313 314 314 312 310 310 312 312 310 310 310 309 311 310 309 313 312 312 312 313 313 313 313 312 312 313 314 313 314 313 312 313 313 313 312 314 314 314 314 315 315 315
314 315 314 313 313 313 309 310 310 310 311 310 308 310 310 310 310 310 312 312 313 313 313 314 313 313 313 313 313 312 313 313 312 312 313 313 312 313 313 314 315 315 315 315 316
315 315 314 313 313 312 308 309 309 309 310 310 309 310 309 311 311 310 311 312 312 312 313 314 313 313 313 312 312 313 314 312 313 312 312 312 310 311 312 314 315 315 315 315 315
314 315 313 312 313 310 310 311 309 309 310 310 309 309 309 311 311 310 312 312 312 312 313 313 311 312 312 312 312 312 312 311 312 311 310 311 308 313 311 311 312 313 313 313 313
315 315 313 312 311 310 309 312 309 309 312 310 309 310 310 310 310 311 311 310 311 312 312 311 310 312 313 312 312 313 311 311 312 312 312 312 309 310 312 312 311 312 312 312 313
315 314 313 312 311 309 311 311 308 313 314 309 308 311 310 310 310 310 310 310 311 310 311 310 309 311 312 310 312 310 311 312 312 310 310 309 309 310 311 311 311 311 313 313 311
315 313 312 311 312 310 310 310 313 313 311 311 309 311 310 310 311 310 310 309 310 310 311 310 310 309 310 310 310 311 311 311 311 310 311 307 310 310 311 310 310 309 313 312 311
312 313 312 312 312 310 310 311 311 309 311 310 309 310 310 310 311 311 310 309 309 309 310 311 311 309 309 311 310 310 310 313 312 314 311 306 309 309 309 310 311 311 314 312 312
313 312 310 312 312 311 311 310 310 310 311 311 310 311 310 310 311 311 310 310 309 309 309 309 311 309 309 309 310 311 310 311 308 304 311 309 309 311 308 307 308 310 312 312 312
310 311 311 310 311 311 311 311 311 314 312 311 311 310 310 310 311 310 311 310 310 309 307 310 310 309 308 309 309 310 309 309 310 307 309 309 311 309 310 308 307 309 313 312 310
306 307 309 310 311 311 311 310 311 313 312 311 311 310 310 310 310 310 311 310 310 307 307 310 311 310 308 309 310 309 309 310 309 313 314 312 309 308 311 309 307 309 312 311 310
300 304 304 311 311 309 310 310 311 314 313 313 314 311 310 310 310 310 310 310 310 307 308 309 311 310 310 307 308 308 310 310 311 311 308 312 310 310 308 309 311 312 312 310 310
300 300 301 306 310 310 310 310 311 314 314 314 314 312 311 310 309 312 311 310 309 307 308 308 312 311 311 309 308 309 309 310 310 311 309 309 308 308 308 311 312 312 311 310 310
300 304 300 301 301 308 309 310 311 312 314 313 314 312 311 311 311 311 313 311 310 310 309 309 313 312 312 311 309 309 309 308 309 311 311 310 310 309 309 310 311 311 310 310 309
300 301 301 304 302 303 307 309 310 312 311 312 312 313 312 312 312 312 312 311 310 310 310 310 309 310 311 311 311 309 309 309 309 310 309 309 309 308 308 309 311 311 309 309 309
299 299 299 300 300 303 305 306 310 311 310 312 312 312 312 312 311 312 311 311 311 310 310 310 308 309 309 311 311 309 310 309 309 309 309 308 307 307 310 311 311 311 310 309 308
296 298 301 302 303 304 306 305 305 305 304 306 310 311 312 311 311 312 311 311 311 310 311 310 308 308 309 309 308 308 308 310 309 309 309 308 308 309 308 310 311 311 310 310 309
Wind_Speed
18 24 26 30 31 29 23 18 15 14 16 25 34 29 27 26 35 39 26 13 6 4 8 8 8 7 6 7 8 5 1 6 12 5 6 15 5 2 5 7 6 3 11 19 20
19 21 28 26 29 30 26 22 17 15 13 15 19 27 29 23 20 34 43 25 9 6 6 15 9 9 7 7 6 5 3 8 8 6 10 15 12 10 4 9 6 6 12 16 16
20 18 28 26 27 32 30 27 24 20 19 16 16 18 26 22 15 21 36 26 17 15 11 11 11 14 14 9 7 6 4 9 5 8 17 16 8 13 7 6 13 17 16 15 17
23 20 26 26 25 27 27 30 28 27 25 21 19 14 17 13 6 14 25 22 21 17 19 16 20 20 16 5 15 3 5 7 4 5 5 13 9 5 13 5 8 12 15 18 19
26 22 25 27 25 25 25 26 26 27 26 22 20 20 18 15 10 7 24 18 22 20 20 22 20 22 10 17 11 5 5 3 5 8 5 10 8 3 9 8 10 11 15 15 17
26 24 25 27 25 24 24 24 24 25 25 22 21 20 20 15 14 12 8 23 26 19 20 23 10 23 9 10 11 14 9 10 7 7 3 7 5 2 10 15 10 12 15 13 16
29 27 25 28 26 25 24 23 24 23 22 21 21 22 14 19 9 18 14 13 26 22 21 25 20 15 8 5 8 10 6 4 5 7 2 1 4 7 11 14 11 11 12 13 15
32 30 27 27 26 25 24 23 22 22 22 21 20 18 8 22 18 10 16 15 22 19 18 19 19 10 2 7 6 6 6 5 5 8 1 4 4 14 18 15 13 12 9 13 17
38 33 27 28 28 26 25 23 22 22 21 20 20 12 9 13 22 20 17 20 20 19 15 17 18 7 3 4 4 7 5 6 4 7 5 4 4 4 8 9 9 12 16 15 15
41 36 32 31 31 29 26 24 23 21 20 18 6 8 11 10 18 23 17 14 19 17 12 11 8 5 4 6 11 7 5 8 7 7 3 5 8 4 5 7 8 8 8 12 16
44 40 38 32 35 33 32 30 20 9 24 11 12 7 9 13 14 19 22 21 12 18 7 15 6 12 11 10 7 5 8 6 6 2 4 7 5 9 12 14 13 11 12 13 13
47 44 39 35 36 35 39 24 28 9 12 15 6 20 9 13 8 18 25 11 15 13 10 6 12 10 10 11 4 5 9 6 5 6 3 4 9 8 11 14 16 16 15 14 13
46 45 39 36 37 37 44 22 23 21 9 12 8 22 8 13 7 24 29 11 11 10 14 8 7 10 7 4 6 4 5 6 4 5 2 2 7 8 10 25 18 18 15 10 9
47 44 39 40 38 42 40 25 25 25 6 10 9 11 14 11 3 24 27 8 7 16 8 5 3 9 9 7 7 4 6 9 10 7 3 4 4 4 7 8 6 10 13 13 11
51 46 43 45 28 41 41 24 23 12 5 15 13 15 17 10 17 12 23 6 7 7 7 5 6 7 5 7 8 4 8 6 4 3 2 3 1 6 6 4 7 11 13 12 10
48 48 43 41 21 41 28 25 16 3 6 7 9 10 11 8 4 12 10 4 5 4 6 3 1 2 2 5 4 8 8 6 2 3 1 7 7 4 5 5 5 12 12 7 7
49 48 42 40 29 37 28 21 4 7 9 8 9 13 17 8 5 8 13 7 7 7 6 4 3 2 2 8 3 4 7 3 2 1 5 7 5 9 3 2 8 13 14 10 9
46 44 43 32 31 38 31 8 7 14 13 5 10 16 13 14 3 8 11 10 7 7 9 7 4 8 5 4 8 7 6 5 6 4 3 5 6 6 2 12 20 18 15 14 14
44 46 47 32 36 38 29 14 11 12 12 8 14 17 10 12 8 7 13 16 13 8 6 8 2 3 4 2 5 6 5 1 7 3 4 5 6 1 6 5 10 15 15 15 11
30 34 36 34 36 36 14 15 7 0 16 14 9 13 20 17 7 11 17 16 10 10 5 2 5 3 0 1 2 3 6 4 2 4 3 5 4 5 7 9 9 12 19 17 13
17 13 24 31 38 26 15 13 8 2 14 13 8 11 13 13 10 11 15 2 16 6 7 1 4 0 4 6 7 2 3 3 5 5 5 3 6 3 5 10 11 14 22 18 16
5 3 13 36 8 11 11 10 7 7 2 2 2 6 13 14 11 10 12 10 19 16 10 3 5 4 3 2 3 3 4 5 4 5 1 4 5 2 5 10 21 21 21 18 16
4 4 8 19 8 12 6 13 2 5 4 4 4 3 1 12 4 5 7 3 7 9 15 8 2 3 4 3 3 4 4 5 4 3 5 5 5 2 1 7 19 23 22 21 19
3 1 3 2 4 3 10 14 8 5 3 2 3 5 4 7 4 10 4 2 3 4 6 8 4 7 10 8 8 6 7 7 6 3 4 7 4 5 7 8 14 19 20 20 19
2 0 2 3 2 2 9 11 12 6 2 4 1 5 6 4 6 4 5 4 1 4 4 6 8 5 4 3 3 5 15 15 11 21 10 19 12 9 10 10 22 23 21 22 21
5 4 4 2 8 4 4 6 16 13 8 5 4 11 5 5 6 7 9 6 5 3 5 1 2 4 3 5 5 2 7 17 21 22 14 12 7 7 24 23 21 26 27 26 25
5 7 6 7 5 2 3 4 4 10 1 7 11 6 4 5 9 8 9 11 10 10 8 7 6 3 3 5 4 4 16 15 14 20 21 16 17 5 5 10 23 27 28 28 27
Wind_Direction
215 212 206 201 203 208 204 204 213 206 205 204 203 197 192 197 209 220 202 164 178 146 195 194 201 225 198 213 215 220 229 245 256 273 120 138 137 200 104 109 109 134 88 148 169
205 212 206 201 202 203 207 197 201 203 196 198 194 195 185 165 182 209 210 194 176 260 206 183 196 230 231 203 212 220 198 238 228 228 132 161 169 158 141 142 144 153 118 158 165
205 215 203 202 203 201 202 199 198 198 202 193 186 178 189 170 186 212 207 203 205 222 216 172 191 226 230 201 199 225 200 246 23 80 134 166 210 157 198 178 186 174 156 174 166
207 202 207 202 203 203 203 201 202 198 205 204 196 190 177 164 180 196 189 196 197 212 216 209 202 206 237 196 211 230 261 335 120 122 133 157 163 173 222 123 119 151 187 177 174
209 198 208 202 198 206 201 200 201 200 207 207 200 191 189 206 233 132 183 204 195 210 220 206 218 210 216 198 181 222 136 99 135 144 129 155 149 205 214 156 154 143 169 179 182
211 200 206 207 202 203 201 198 198 198 202 199 198 188 191 223 208 245 225 202 200 215 212 204 212 212 230 201 184 197 149 129 158 138 138 145 132 114 217 202 179 156 167 184 188
211 206 203 207 201 201 199 197 192 193 199 192 192 192 212 223 242 244 246 224 198 203 203 208 208 268 239 195 166 144 116 130 165 160 136 180 140 218 180 171 183 200 188 191 200
213 206 202 206 198 195 195 193 184 186 190 184 184 181 232 224 225 218 207 200 191 183 190 212 215 248 302 165 137 174 142 160 163 141 159 157 235 221 197 170 182 203 203 205 207
217 203 200 203 193 195 188 183 175 178 178 175 177 179 226 222 222 221 203 191 183 175 183 197 213 229 213 216 159 200 171 179 157 190 133 185 234 113 161 190 211 227 226 209 222
209 199 197 199 190 188 178 169 164 167 162 158 170 200 234 218 208 207 193 179 161 158 162 176 179 180 216 217 196 175 219 183 157 198 189 175 258 160 187 209 219 224 217 213 226
205 195 192 199 187 183 164 151 140 168 177 174 185 218 161 187 189 184 179 163 156 161 160 198 189 205 209 222 254 177 199 176 126 119 145 219 243 245 215 205 213 232 233 219 235
202 190 189 189 183 179 169 168 166 192 182 219 176 201 184 153 145 173 168 159 172 176 175 165 212 198 223 209 228 262 190 200 56 104 104 226 240 252 245 243 226 222 228 230 220
181 185 184 186 181 180 175 172 179 164 154 196 206 189 178 176 169 175 171 198 181 181 194 174 176 227 156 156 174 224 184 148 134 127 268 338 277 233 230 233 228 223 225 212 191
185 183 179 181 181 180 182 174 174 184 162 161 195 202 179 175 133 174 174 181 200 193 164 224 198 166 161 179 170 168 87 111 125 139 206 178 267 234 194 196 190 216 220 232 234
182 181 179 184 176 183 181 181 190 182 205 166 155 165 167 182 142 176 178 190 170 167 156 174 149 160 178 181 188 161 114 123 129 136 93 212 94 255 107 202 190 186 165 159 190
183 178 178 178 184 182 177 176 154 203 228 163 142 160 154 165 161 139 159 154 101 75 67 73 309 153 141 45 134 146 106 90 120 129 273 203 168 262 175 198 105 126 136 161 171
178 175 176 170 168 165 175 154 144 205 138 165 186 169 166 159 127 175 174 168 153 138 166 127 118 84 148 85 15 144 139 121 158 174 215 335 181 242 156 94 151 143 139 154 143
180 172 173 171 163 164 169 170 186 200 191 161 163 161 174 149 126 168 158 192 247 213 139 159 207 172 192 153 171 202 183 155 172 178 190 345 231 248 89 125 120 125 141 152 164
160 164 168 169 167 168 169 184 197 190 183 132 137 164 182 177 134 146 184 194 200 189 168 173 108 60 55 46 143 195 213 110 105 20 79 205 264 227 142 136 138 144 150 152 160
148 155 164 176 169 174 190 194 207 102 152 153 164 180 184 176 147 175 183 197 195 189 98 178 110 337 251 150 90 169 151 78 355 127 219 243 241 229 195 195 175 167 163 162 172
119 135 167 172 171 176 202 189 180 51 144 164 194 177 184 179 180 192 183 205 185 139 120 92 96 262 142 210 162 150 188 201 144 159 166 171 253 246 202 172 169 171 168 175 173
85 117 138 179 167 198 208 187 220 139 37 236 315 180 185 167 184 192 195 195 181 152 163 133 102 145 174 121 54 347 193 164 145 227 203 151 265 12 3 142 156 162 166 171 172
36 64 173 172 198 183 160 216 273 134 168 159 203 107 272 162 153 167 139 3 129 155 163 171 168 93 28 21 47 223 190 228 112 81 198 140 256 330 296 128 156 155 165 173 168
119 116 61 146 78 200 176 203 203 167 124 100 99 79 114 155 120 183 126 151 146 105 134 146 146 182 197 210 132 187 191 205 181 134 180 219 161 213 192 170 157 165 173 173 172
111 106 167 156 159 129 170 171 196 165 79 178 79 209 159 134 156 192 117 110 120 149 137 165 190 165 73 76 108 176 189 191 205 223 192 232 219 197 193 186 183 180 177 178 179
144 173 136 85 122 133 123 186 198 206 159 196 208 183 193 151 175 178 134 168 175 165 165 167 182 113 37 83 83 63 201 195 207 224 234 250 253 181 194 193 170 182 184 188 187
199 161 137 144 134 97 133 134 160 146 292 281 198 144 184 114 83 110 128 149 158 158 166 146 131 119 223 111 85 325 218 198 213 224 217 230 227 160 136 162 177 191 196 196 195